CW9244 Port Jefferson Station NY US current weather conditions

sailwx.info

Wind from 295 at 1 knots

Air temperature 7.8° C
Dewpoint -4.0° C

Last reported at 2019-Dec-15 20:04 UTC.
Time now 2019-Dec-15 21:01 UTC

Location: N 40°54' W 073°10'.
View on Google Maps.

See reports from other nearby stations

  
Tides and Currents Weather Stations Pressure Air Temp Water Temp Dewpoint Dewpoint Depression Visibility Wind Speed Wind Dir Waves Ship Positions
date/time (UTC)wind fromknots sea level pressurealtimeterstation pressurevisibilityair tempwater tempwave heightnotes
2019-Dec-15 20:04 295 1 7.8
2019-Dec-15 19:45 277 4 7.8
2019-Dec-15 19:36 284 1 7.2
2019-Dec-15 19:26 281 6 7.2
2019-Dec-15 19:16 273 6 7.2
2019-Dec-15 19:06 244 4 7.2
2019-Dec-15 18:57 282 6 7.2
2019-Dec-15 18:48 263 9 7.2
2019-Dec-15 18:38 280 5 7.2
2019-Dec-15 18:28 287 6 7.2
2019-Dec-15 18:19 280 6 7.2
2019-Dec-15 18:09 279 6 7.2
2019-Dec-15 18:00 292 2 8.3
2019-Dec-15 17:51 282 3 8.3
2019-Dec-15 17:41 270 5 8.9
2019-Dec-15 17:31 251 5 9.4
2019-Dec-15 17:21 270 3 8.9
2019-Dec-15 17:12 303 6 8.3
2019-Dec-15 17:03 305 5 8.3
2019-Dec-15 16:53 225 8.3
2019-Dec-15 16:44 299 3 8.3
2019-Dec-15 16:34 261 3 8.3
2019-Dec-15 16:24 292 3 8.3
2019-Dec-15 16:14 254 2 8.3
2019-Dec-15 16:05 274 4 8.3
2019-Dec-15 15:55 264 7 8.3
2019-Dec-15 15:46 286 5 8.3
2019-Dec-15 15:37 270 4 8.3
2019-Dec-15 15:27 246 7 8.3
2019-Dec-15 15:17 292 4 8.3
2019-Dec-15 15:08 286 6 7.8
2019-Dec-15 14:58 272 3 7.8
2019-Dec-15 14:49 265 3 7.8
2019-Dec-15 14:40 239 4 7.2
2019-Dec-15 14:31 250 2 7.2
2019-Dec-15 14:21 292 2 7.2
2019-Dec-15 14:12 259 2 6.7
2019-Dec-15 14:02 278 2 6.7
2019-Dec-15 13:52 270 3 6.7
2019-Dec-15 13:42 282 3 6.7
2019-Dec-15 13:33 247 1 6.7
2019-Dec-15 13:24 251 5 6.7
2019-Dec-15 13:15 270 2 6.1
2019-Dec-15 13:05 247 0 6.1
2019-Dec-15 12:55 267 3 6.1
2019-Dec-15 12:45 252 3 6.1
2019-Dec-15 12:35 262 3 6.1
2019-Dec-15 12:26 265 4 6.1
2019-Dec-15 12:17 273 2 6.1
2019-Dec-15 12:07 267 2 6.1
2019-Dec-15 11:58 270 2 6.1
2019-Dec-15 11:48 275 2 5.6
2019-Dec-15 11:39 278 2 5.6
2019-Dec-15 11:29 247 1 5.6
2019-Dec-15 11:19 292 1 6.1
2019-Dec-15 11:10 270 1 6.1
2019-Dec-15 11:00 258 3 6.1
2019-Dec-15 10:50 247 1 6.1
2019-Dec-15 10:41 270 1 6.1
2019-Dec-15 10:31 247 0 6.1
2019-Dec-15 10:21 282 4 6.1
2019-Dec-15 10:11 247 1 6.1
2019-Dec-15 10:02 292 1 6.1
2019-Dec-15 09:52 268 2 6.1
2019-Dec-15 09:43 270 3 6.1
2019-Dec-15 09:34 247 1 6.1
2019-Dec-15 09:24 292 0 6.1
2019-Dec-15 09:15 270 1 6.7
2019-Dec-15 09:05 251 5 6.7
2019-Dec-15 08:56 270 2 6.7
2019-Dec-15 08:47 270 2 6.7
2019-Dec-15 08:37 292 5 6.7
2019-Dec-15 08:27 261 3 6.7
2019-Dec-15 08:17 230 1 6.7
2019-Dec-15 08:08 263 5 6.1
2019-Dec-15 07:58 296 6 6.1
2019-Dec-15 07:48 289 2 6.1
2019-Dec-15 07:38 247 4 6.7
2019-Dec-15 07:28 274 4 6.7
2019-Dec-15 07:18 282 2 6.7
2019-Dec-15 07:09 283 6 6.7
2019-Dec-15 07:00 274 2 6.7
2019-Dec-15 06:50 254 4 6.7
2019-Dec-15 06:41 270 2 6.7
2019-Dec-15 06:32 240 0 6.7
2019-Dec-15 06:23 245 3 6.7
2019-Dec-15 06:13 266 3 6.7
2019-Dec-15 06:03 292 1 7.2
2019-Dec-15 05:54 291 6 7.2
2019-Dec-15 05:44 283 7 7.2
2019-Dec-15 05:35 292 1 7.2
2019-Dec-15 05:26 292 4 7.2
2019-Dec-15 05:16 270 3 7.2
2019-Dec-15 05:07 275 2 7.2
2019-Dec-15 04:57 259 3 7.2
2019-Dec-15 04:48 247 2 7.2
2019-Dec-15 04:39 292 5 7.2
2019-Dec-15 04:29 276 3 7.8
2019-Dec-15 04:19 292 3 8.3
2019-Dec-15 04:00 225 2 8.3
2019-Dec-15 03:50 244 2 8.3
2019-Dec-15 03:40 253 4 8.9
2019-Dec-15 03:31 271 5 8.9
2019-Dec-15 03:21 247 2 8.9
2019-Dec-15 03:11 263 3 9.4
2019-Dec-15 03:01 247 1 9.4
2019-Dec-15 02:51 248 4 9.4
2019-Dec-15 02:42 257 3 10.0
2019-Dec-15 02:32 225 3 10.0
2019-Dec-15 02:23 202 1 10.0
2019-Dec-15 02:14 180 0 10.0
2019-Dec-15 02:04 247 2 10.0
2019-Dec-15 01:55 202 2 10.0
2019-Dec-15 01:45 180 10.6
2019-Dec-15 01:35 247 3 10.6
2019-Dec-15 01:26 225 2 10.6
2019-Dec-15 01:16 260 4 10.6
2019-Dec-15 01:06 256 3 10.6
2019-Dec-15 00:56 226 5 11.1
2019-Dec-15 00:47 180 11.1
2019-Dec-15 00:37 180 3 11.7
2019-Dec-15 00:27 185 2 11.7
2019-Dec-15 00:17 202 4 11.7
2019-Dec-15 00:08 202 3 12.2
2019-Dec-14 23:58 202 1 12.2
2019-Dec-14 23:49 202 3 12.2
2019-Dec-14 23:39 202 3 12.2
2019-Dec-14 23:29 202 1 12.2
2019-Dec-14 23:19 202 0 12.2
2019-Dec-14 23:10 202 2 12.8
2019-Dec-14 23:00 202 1 12.8
2019-Dec-14 22:51 202 1 12.8
2019-Dec-14 22:42 202 3 12.8
2019-Dec-14 22:33 202 3 12.8
2019-Dec-14 22:24 202 5 12.8
2019-Dec-14 22:14 202 2 12.8
2019-Dec-14 22:05 212 4 12.8
2019-Dec-14 21:55 225 3 13.3
2019-Dec-14 21:45 180 4 13.3
2019-Dec-14 21:36 180 2 13.3
2019-Dec-14 21:26 180 3 13.3
2019-Dec-14 21:07 180 4 13.9
2019-Dec-14 20:57 180 2 14.4
2019-Dec-14 20:48 180 4 14.4
2019-Dec-14 20:38 202 3 14.4
2019-Dec-14 20:28 157 1 14.4
2019-Dec-14 20:18 152 6 14.4
2019-Dec-14 20:09 135 3 14.4
2019-Dec-14 19:59 135 1 14.4
2019-Dec-14 19:49 135 2 14.4
2019-Dec-14 19:39 135 1 14.4
2019-Dec-14 19:29 135 0 14.4
2019-Dec-14 19:19 135 0 14.4
2019-Dec-14 19:09 135 2 15.0
2019-Dec-14 18:59 135 1 15.0
2019-Dec-14 18:50 135 1 15.0
2019-Dec-14 18:40 135 2 15.0
2019-Dec-14 18:30 135 2 15.0
2019-Dec-14 18:20 135 0 15.0
2019-Dec-14 18:11 135 1 15.0
2019-Dec-14 18:02 135 1 15.0
2019-Dec-14 17:52 135 1 15.0
2019-Dec-14 17:43 135 2 15.0
2019-Dec-14 17:33 135 0 15.0
2019-Dec-14 17:23 135 1 15.0
2019-Dec-14 17:13 135 1 15.0
2019-Dec-14 17:03 135 15.0
2019-Dec-14 16:53 135 15.0
2019-Dec-14 16:43 135 14.4
2019-Dec-14 16:34 135 14.4
2019-Dec-14 16:24 135 0 14.4
2019-Dec-14 16:14 135 0 14.4
2019-Dec-14 16:04 135 15.0
2019-Dec-14 15:55 135 15.0
2019-Dec-14 15:45 135 15.0
2019-Dec-14 15:35 135 0 15.0
2019-Dec-14 15:26 135 0 15.0
2019-Dec-14 15:16 135 0 15.0
2019-Dec-14 15:07 135 0 15.6
2019-Dec-14 14:57 135 15.6
2019-Dec-14 14:48 135 15.6
2019-Dec-14 14:38 135 0 15.6
2019-Dec-14 14:29 135 0 15.6
2019-Dec-14 14:19 135 15.6
2019-Dec-14 14:10 135 0 15.6
2019-Dec-14 14:00 135 15.6
2019-Dec-14 13:50 135 15.6
2019-Dec-14 13:41 135 0 15.0
2019-Dec-14 13:31 135 0 15.0
2019-Dec-14 13:22 135 0 15.0
2019-Dec-14 13:13 135 1 15.0
2019-Dec-14 13:03 135 1 15.0
2019-Dec-14 12:54 135 1 15.0
2019-Dec-14 12:44 135 0 15.0
2019-Dec-14 12:35 135 0 15.0
2019-Dec-14 12:25 135 0 15.0
2019-Dec-14 12:16 135 2 15.0
2019-Dec-14 12:06 135 1 15.0
2019-Dec-14 11:57 135 1 15.0
2019-Dec-14 11:47 135 2 15.0
2019-Dec-14 11:37 135 2 15.0
2019-Dec-14 11:28 135 1 15.0
2019-Dec-14 11:18 135 0 15.0
2019-Dec-14 10:50 135 1 15.0
2019-Dec-14 10:40 135 1 15.0
2019-Dec-14 10:31 135 1 15.0
2019-Dec-14 10:21 135 2 15.0
2019-Dec-14 10:12 135 2 15.0
2019-Dec-14 10:02 135 4 15.0
2019-Dec-14 09:53 135 2 15.6
2019-Dec-14 09:44 135 4 15.6
2019-Dec-14 09:35 135 4 15.6
2019-Dec-14 09:26 135 4 15.6
2019-Dec-14 08:47 135 2 15.6
2019-Dec-14 08:37 135 3 15.0
2019-Dec-14 08:27 135 5 15.0
2019-Dec-14 08:17 135 1 15.0
2019-Dec-14 08:07 135 5 15.0
2019-Dec-14 07:58 135 3 15.0
2019-Dec-14 07:48 112 2 14.4
2019-Dec-14 07:39 090 0 13.9
2019-Dec-14 07:29 067 1 13.3
2019-Dec-14 07:19 067 12.8
2019-Dec-14 07:10 067 12.8
2019-Dec-14 07:00 067 12.8
2019-Dec-14 06:51 090 2 12.8
2019-Dec-14 06:41 090 2 12.8
2019-Dec-14 06:32 112 1 12.8
2019-Dec-14 06:23 099 2 12.8
2019-Dec-14 06:14 112 2 12.8
2019-Dec-14 06:05 090 2 12.8
2019-Dec-14 05:56 105 6 12.8
2019-Dec-14 05:46 067 6 12.8
2019-Dec-14 05:37 067 2 12.8
2019-Dec-14 05:28 067 4 12.8
2019-Dec-14 05:18 067 2 12.8
2019-Dec-14 05:08 090 2 12.8
2019-Dec-14 04:58 090 0 12.8
2019-Dec-14 04:49 112 4 12.8
2019-Dec-14 04:39 101 2 12.8
2019-Dec-14 04:30 112 3 12.8
2019-Dec-14 04:20 090 4 12.8
2019-Dec-14 04:10 090 2 12.8
2019-Dec-14 04:01 112 1 12.8
2019-Dec-14 03:51 112 3 12.2
2019-Dec-14 03:42 112 1 12.2
2019-Dec-14 03:33 090 1 12.2
2019-Dec-14 03:23 090 1 12.2
2019-Dec-14 03:14 067 2 12.2
2019-Dec-14 03:04 067 2 12.2
2019-Dec-14 02:55 067 2 12.2
2019-Dec-14 02:45 112 2 12.2
2019-Dec-14 02:36 112 2 12.2
2019-Dec-14 02:26 112 2 12.2
2019-Dec-14 02:17 112 3 12.2
2019-Dec-14 02:08 067 1 12.2
2019-Dec-14 01:58 112 2 12.2
2019-Dec-14 01:49 112 2 12.2
2019-Dec-14 01:40 112 3 11.7
2019-Dec-14 01:30 112 2 11.7
2019-Dec-14 01:21 112 3 11.7
2019-Dec-14 01:12 112 0 11.7
2019-Dec-14 01:02 112 1 11.7
2019-Dec-14 00:52 112 2 11.7
2019-Dec-14 00:43 090 2 11.1
2019-Dec-14 00:33 090 1 11.1
2019-Dec-14 00:23 090 0 10.6
2019-Dec-14 00:14 090 10.6
2019-Dec-14 00:04 090 0 10.6
2019-Dec-13 23:55 090 10.6
2019-Dec-13 23:46 090 10.6
2019-Dec-13 23:37 090 0 10.6
2019-Dec-13 23:27 090 10.0
2019-Dec-13 23:17 090 1 10.0
2019-Dec-13 23:07 090 0 9.4
2019-Dec-13 22:58 090 9.4
2019-Dec-13 22:48 090 0 8.9
2019-Dec-13 22:39 090 0 8.9
2019-Dec-13 22:29 090 8.9
2019-Dec-13 22:20 090 8.3
2019-Dec-13 22:10 090 8.3
2019-Dec-13 22:00 090 8.3
2019-Dec-13 21:50 090 0 8.3
2019-Dec-13 21:40 090 0 7.8
2019-Dec-13 21:30 090 7.8
2019-Dec-13 21:20 090 0 7.8
2019-Dec-13 21:11 090 7.8
2019-Dec-13 21:01 090 7.2